QPF
0.04 0.05 0.05 0.04 0.03 0.02 0.03 0.04 0.05 0.04 0.04 0.06 0.06 0.06 0.08 0.11 0.13 0.13 0.17 0.15 0.10 0.09 0.09 0.07 0.06 0.05 0.05 0.03 0.03 0.03 0.03 0.03 0.02 0.02 0.03 0.02 0.02 0.02
0.05 0.05 0.06 0.04 0.04 0.03 0.02 0.03 0.04 0.05 0.04 0.05 0.06 0.06 0.05 0.06 0.09 0.11 0.15 0.17 0.13 0.09 0.09 0.08 0.07 0.05 0.05 0.04 0.03 0.02 0.02 0.02 0.02 0.02 0.02 0.01 0.01 0.01
0.04 0.05 0.06 0.06 0.05 0.05 0.04 0.04 0.04 0.05 0.05 0.04 0.06 0.07 0.05 0.05 0.06 0.09 0.11 0.13 0.13 0.11 0.09 0.08 0.07 0.06 0.06 0.07 0.05 0.03 0.02 0.01 0.01 0.01 0.01 0.01 0.01 0.01
0.04 0.05 0.05 0.06 0.07 0.06 0.06 0.05 0.04 0.05 0.05 0.05 0.04 0.04 0.05 0.06 0.07 0.08 0.08 0.11 0.13 0.11 0.10 0.08 0.08 0.08 0.07 0.06 0.06 0.05 0.04 0.03 0.01 0.01 0.01 0.01 0.01 0.01
0.04 0.04 0.05 0.06 0.06 0.06 0.07 0.07 0.06 0.04 0.05 0.05 0.04 0.03 0.04 0.05 0.07 0.09 0.11 0.13 0.15 0.13 0.12 0.10 0.08 0.08 0.08 0.07 0.07 0.05 0.04 0.03 0.03 0.02 0.01 0.01 0.01 0.01
0.03 0.04 0.04 0.05 0.07 0.07 0.07 0.08 0.07 0.07 0.07 0.06 0.06 0.04 0.04 0.05 0.08 0.10 0.14 0.17 0.19 0.17 0.15 0.12 0.10 0.09 0.09 0.09 0.08 0.07 0.05 0.04 0.03 0.03 0.02 0.02 0.01 0.01
0.03 0.04 0.04 0.03 0.04 0.05 0.05 0.06 0.08 0.09 0.09 0.08 0.07 0.06 0.05 0.05 0.08 0.11 0.14 0.19 0.23 0.26 0.25 0.17 0.12 0.09 0.07 0.08 0.08 0.08 0.07 0.05 0.04 0.03 0.03 0.03 0.02 0.02
0.03 0.04 0.04 0.02 0.02 0.01 0.02 0.03 0.04 0.06 0.08 0.09 0.08 0.07 0.05 0.05 0.08 0.12 0.16 0.18 0.20 0.26 0.33 0.28 0.18 0.13 0.09 0.05 0.05 0.06 0.07 0.07 0.05 0.04 0.03 0.02 0.01 0.01
0.03 0.05 0.03 0.02 0.03 0.05 0.04 0.02 0.02 0.01 0.02 0.05 0.07 0.07 0.08 0.07 0.08 0.11 0.18 0.18 0.17 0.20 0.28 0.33 0.28 0.22 0.14 0.08 0.07 0.06 0.06 0.07 0.06 0.05 0.04 0.03 0.02 0.01
0.04 0.05 0.07 0.08 0.06 0.07 0.09 0.09 0.07 0.05 0.03 0.02 0.04 0.05 0.07 0.09 0.10 0.11 0.18 0.22 0.20 0.22 0.26 0.32 0.33 0.27 0.20 0.14 0.11 0.08 0.07 0.06 0.06 0.05 0.04 0.03 0.03 0.02
0.05 0.06 0.07 0.09 0.07 0.03 0.06 0.09 0.09 0.09 0.04 0.02 0.03 0.04 0.03 0.04 0.07 0.10 0.15 0.19 0.22 0.24 0.26 0.29 0.33 0.32 0.29 0.22 0.14 0.10 0.08 0.06 0.05 0.05 0.04 0.04 0.03 0.03
0.07 0.09 0.05 0.03 0.02 0.01 0.05 0.10 0.11 0.11 0.09 0.08 0.06 0.04 0.03 0.03 0.04 0.08 0.13 0.14 0.20 0.24 0.25 0.24 0.29 0.31 0.33 0.27 0.18 0.11 0.08 0.08 0.07 0.05 0.05 0.05 0.04 0.03
0.06 0.09 0.10 0.03 0.01 0.01 0.03 0.07 0.10 0.11 0.12 0.11 0.13 0.12 0.08 0.06 0.05 0.08 0.11 0.11 0.14 0.18 0.21 0.22 0.26 0.29 0.27 0.25 0.21 0.14 0.08 0.06 0.06 0.06 0.05 0.05 0.05 0.03
0.05 0.08 0.09 0.02 0.00 0.01 0.01 0.02 0.04 0.06 0.08 0.09 0.12 0.12 0.11 0.07 0.05 0.07 0.10 0.09 0.10 0.13 0.17 0.20 0.25 0.28 0.25 0.20 0.17 0.15 0.10 0.07 0.06 0.04 0.03 0.04 0.04 0.04
0.03 0.03 0.03 0.01 0.01 0.02 0.01 0.01 0.03 0.06 0.07 0.08 0.09 0.12 0.13 0.13 0.10 0.09 0.09 0.09 0.10 0.12 0.13 0.15 0.18 0.25 0.26 0.21 0.15 0.13 0.11 0.08 0.07 0.06 0.04 0.03 0.03 0.02
0.04 0.03 0.01 0.01 0.02 0.03 0.04 0.03 0.04 0.07 0.08 0.09 0.10 0.12 0.12 0.13 0.12 0.11 0.09 0.08 0.08 0.11 0.13 0.14 0.16 0.18 0.21 0.23 0.18 0.13 0.10 0.09 0.08 0.07 0.06 0.05 0.04 0.02
0.04 0.06 0.08 0.09 0.09 0.09 0.11 0.11 0.10 0.08 0.08 0.09 0.11 0.12 0.11 0.11 0.10 0.10 0.10 0.09 0.08 0.08 0.10 0.13 0.16 0.17 0.18 0.20 0.22 0.19 0.13 0.09 0.09 0.09 0.09 0.08 0.06 0.05
0.01 0.06 0.10 0.14 0.15 0.15 0.16 0.16 0.14 0.13 0.12 0.12 0.12 0.11 0.10 0.10 0.10 0.10 0.10 0.10 0.09 0.08 0.08 0.09 0.11 0.15 0.19 0.21 0.21 0.19 0.15 0.10 0.08 0.09 0.10 0.09 0.08 0.07
0.02 0.06 0.10 0.13 0.15 0.14 0.14 0.14 0.14 0.13 0.12 0.11 0.11 0.11 0.10 0.09 0.11 0.10 0.09 0.09 0.09 0.08 0.08 0.09 0.08 0.09 0.12 0.17 0.17 0.17 0.14 0.11 0.09 0.08 0.09 0.08 0.07 0.07
0.06 0.07 0.09 0.11 0.13 0.13 0.14 0.14 0.14 0.14 0.13 0.11 0.11 0.12 0.11 0.10 0.10 0.10 0.09 0.08 0.08 0.08 0.08 0.08 0.08 0.07 0.07 0.09 0.11 0.11 0.12 0.11 0.10 0.10 0.08 0.07 0.07 0.07
0.09 0.08 0.09 0.09 0.11 0.12 0.13 0.13 0.14 0.15 0.14 0.12 0.11 0.11 0.12 0.12 0.11 0.10 0.10 0.08 0.07 0.07 0.07 0.06 0.06 0.05 0.06 0.07 0.08 0.10 0.10 0.10 0.11 0.10 0.09 0.07 0.06 0.05
0.07 0.06 0.07 0.08 0.08 0.11 0.12 0.12 0.12 0.13 0.14 0.13 0.11 0.10 0.10 0.10 0.10 0.10 0.10 0.08 0.06 0.06 0.06 0.06 0.07 0.06 0.06 0.06 0.06 0.07 0.09 0.09 0.08 0.09 0.08 0.07 0.04 0.03
0.07 0.07 0.07 0.06 0.07 0.08 0.11 0.11 0.10 0.12 0.13 0.12 0.11 0.10 0.09 0.09 0.08 0.09 0.10 0.08 0.06 0.06 0.06 0.06 0.08 0.08 0.07 0.06 0.06 0.07 0.07 0.07 0.07 0.06 0.05 0.04 0.04 0.03
MSLP
1012.60 1012.62 1012.67 1012.70 1012.72 1012.69 1012.60 1012.47 1012.29 1012.09 1011.88 1011.69 1011.51 1011.36 1011.23 1011.14 1011.07 1011.04 1011.05 1011.11 1011.24 1011.44 1011.72 1012.08 1012.50 1012.98 1013.51 1014.07 1014.64 1015.23 1015.83 1016.43 1017.02 1017.61 1018.19 1018.74 1019.26 1019.74
1012.30 1012.27 1012.27 1012.28 1012.29 1012.29 1012.25 1012.19 1012.10 1011.99 1011.86 1011.72 1011.56 1011.40 1011.22 1011.05 1010.88 1010.74 1010.64 1010.60 1010.64 1010.76 1010.99 1011.31 1011.72 1012.20 1012.72 1013.29 1013.87 1014.47 1015.08 1015.69 1016.29 1016.89 1017.46 1018.01 1018.52 1018.99
1012.01 1011.92 1011.87 1011.84 1011.83 1011.83 1011.84 1011.84 1011.83 1011.81 1011.77 1011.70 1011.59 1011.43 1011.24 1011.01 1010.77 1010.54 1010.34 1010.21 1010.16 1010.22 1010.39 1010.67 1011.04 1011.50 1012.02 1012.58 1013.16 1013.76 1014.37 1014.98 1015.58 1016.17 1016.74 1017.29 1017.79 1018.25
1011.76 1011.61 1011.50 1011.42 1011.38 1011.37 1011.40 1011.45 1011.51 1011.57 1011.61 1011.62 1011.56 1011.44 1011.25 1011.00 1010.72 1010.42 1010.15 1009.93 1009.81 1009.80 1009.90 1010.13 1010.46 1010.88 1011.37 1011.91 1012.48 1013.06 1013.66 1014.26 1014.86 1015.45 1016.02 1016.56 1017.06 1017.52
1011.56 1011.36 1011.18 1011.05 1010.97 1010.94 1010.97 1011.05 1011.16 1011.28 1011.39 1011.46 1011.46 1011.38 1011.22 1010.97 1010.67 1010.34 1010.02 1009.74 1009.56 1009.47 1009.51 1009.67 1009.94 1010.30 1010.74 1011.24 1011.77 1012.33 1012.91 1013.50 1014.10 1014.68 1015.26 1015.81 1016.33 1016.81
1011.39 1011.14 1010.91 1010.72 1010.59 1010.54 1010.55 1010.63 1010.76 1010.93 1011.08 1011.21 1011.26 1011.23 1011.10 1010.88 1010.58 1010.24 1009.90 1009.59 1009.36 1009.22 1009.19 1009.27 1009.47 1009.75 1010.12 1010.55 1011.03 1011.55 1012.11 1012.68 1013.28 1013.88 1014.48 1015.06 1015.61 1016.12
1011.22 1010.93 1010.66 1010.43 1010.25 1010.16 1010.15 1010.21 1010.34 1010.51 1010.70 1010.85 1010.94 1010.95 1010.86 1010.68 1010.41 1010.09 1009.76 1009.44 1009.17 1008.99 1008.90 1008.91 1009.02 1009.22 1009.50 1009.85 1010.27 1010.74 1011.27 1011.84 1012.44 1013.06 1013.70 1014.32 1014.92 1015.48
1011.03 1010.72 1010.41 1010.14 1009.93 1009.80 1009.75 1009.78 1009.89 1010.05 1010.23 1010.40 1010.51 1010.55 1010.50 1010.37 1010.15 1009.87 1009.56 1009.26 1008.99 1008.77 1008.63 1008.58 1008.60 1008.72 1008.91 1009.18 1009.53 1009.96 1010.45 1011.01 1011.63 1012.29 1012.97 1013.64 1014.30 1014.92
1010.80 1010.47 1010.15 1009.86 1009.62 1009.45 1009.36 1009.36 1009.43 1009.56 1009.72 1009.87 1009.99 1010.06 1010.04 1009.95 1009.79 1009.57 1009.31 1009.04 1008.79 1008.57 1008.40 1008.29 1008.25 1008.29 1008.40 1008.60 1008.89 1009.26 1009.73 1010.29 1010.92 1011.61 1012.34 1013.07 1013.78 1014.45
1010.54 1010.21 1009.89 1009.58 1009.32 1009.12 1009.00 1008.96 1008.99 1009.07 1009.19 1009.32 1009.43 1009.51 1009.52 1009.48 1009.37 1009.22 1009.02 1008.81 1008.59 1008.39 1008.22 1008.09 1008.00 1007.98 1008.03 1008.17 1008.40 1008.74 1009.19 1009.74 1010.39 1011.11 1011.87 1012.65 1013.40 1014.11
1010.28 1009.96 1009.64 1009.33 1009.06 1008.84 1008.69 1008.61 1008.59 1008.63 1008.70 1008.80 1008.89 1008.97 1009.00 1009.00 1008.95 1008.86 1008.73 1008.59 1008.42 1008.26 1008.11 1007.98 1007.88 1007.82 1007.84 1007.93 1008.13 1008.44 1008.87 1009.42 1010.07 1010.80 1011.58 1012.38 1013.15 1013.88
1010.05 1009.74 1009.42 1009.12 1008.85 1008.62 1008.45 1008.33 1008.27 1008.26 1008.29 1008.35 1008.42 1008.49 1008.54 1008.56 1008.56 1008.53 1008.48 1008.40 1008.30 1008.19 1008.08 1007.97 1007.88 1007.82 1007.82 1007.90 1008.07 1008.36 1008.77 1009.31 1009.95 1010.67 1011.44 1012.23 1013.00 1013.72
1009.87 1009.57 1009.26 1008.97 1008.70 1008.46 1008.27 1008.13 1008.04 1007.99 1007.98 1008.00 1008.05 1008.10 1008.16 1008.20 1008.24 1008.26 1008.27 1008.26 1008.23 1008.18 1008.11 1008.04 1007.98 1007.94 1007.95 1008.02 1008.19 1008.47 1008.86 1009.37 1009.98 1010.67 1011.41 1012.17 1012.90 1013.59
1009.75 1009.45 1009.15 1008.86 1008.59 1008.35 1008.15 1007.99 1007.87 1007.80 1007.76 1007.75 1007.77 1007.81 1007.86 1007.92 1007.99 1008.05 1008.10 1008.14 1008.17 1008.18 1008.17 1008.15 1008.13 1008.13 1008.16 1008.25 1008.41 1008.68 1009.05 1009.52 1010.09 1010.73 1011.42 1012.11 1012.79 1013.43
1009.66 1009.36 1009.06 1008.77 1008.50 1008.25 1008.04 1007.87 1007.74 1007.65 1007.59 1007.56 1007.57 1007.59 1007.64 1007.70 1007.78 1007.86 1007.95 1008.03 1008.10 1008.16 1008.20 1008.24 1008.27 1008.31 1008.37 1008.48 1008.66 1008.92 1009.26 1009.70 1010.21 1010.79 1011.40 1012.02 1012.62 1013.19
1009.57 1009.26 1008.95 1008.65 1008.37 1008.12 1007.91 1007.73 1007.60 1007.50 1007.43 1007.39 1007.38 1007.40 1007.44 1007.50 1007.57 1007.66 1007.76 1007.87 1007.97 1008.07 1008.16 1008.24 1008.32 1008.41 1008.52 1008.66 1008.85 1009.11 1009.43 1009.83 1010.28 1010.79 1011.32 1011.86 1012.38 1012.88
1009.43 1009.11 1008.78 1008.47 1008.17 1007.92 1007.70 1007.52 1007.39 1007.29 1007.23 1007.19 1007.18 1007.19 1007.21 1007.26 1007.33 1007.41 1007.51 1007.63 1007.75 1007.87 1008.00 1008.13 1008.26 1008.40 1008.55 1008.73 1008.95 1009.21 1009.52 1009.88 1010.28 1010.72 1011.17 1011.63 1012.08 1012.51
1009.20 1008.86 1008.51 1008.18 1007.87 1007.61 1007.39 1007.22 1007.10 1007.01 1006.95 1006.92 1006.91 1006.92 1006.93 1006.97 1007.02 1007.09 1007.17 1007.28 1007.41 1007.55 1007.71 1007.88 1008.05 1008.24 1008.45 1008.67 1008.93 1009.20 1009.52 1009.86 1010.22 1010.61 1011.00 1011.39 1011.78 1012.16
1008.85 1008.49 1008.13 1007.78 1007.47 1007.21 1006.99 1006.84 1006.72 1006.65 1006.61 1006.59 1006.58 1006.58 1006.59 1006.61 1006.64 1006.68 1006.75 1006.85 1006.97 1007.12 1007.30 1007.50 1007.73 1007.97 1008.23 1008.51 1008.80 1009.11 1009.44 1009.78 1010.13 1010.49 1010.84 1011.19 1011.53 1011.87
1008.38 1008.01 1007.64 1007.30 1006.99 1006.73 1006.54 1006.40 1006.31 1006.25 1006.23 1006.22 1006.22 1006.21 1006.21 1006.20 1006.21 1006.23 1006.27 1006.35 1006.46 1006.62 1006.81 1007.05 1007.31 1007.61 1007.93 1008.26 1008.61 1008.97 1009.33 1009.69 1010.04 1010.39 1010.73 1011.06 1011.38 1011.69
1007.80 1007.44 1007.09 1006.76 1006.47 1006.24 1006.07 1005.96 1005.89 1005.86 1005.86 1005.86 1005.86 1005.85 1005.83 1005.80 1005.77 1005.76 1005.78 1005.83 1005.94 1006.09 1006.30 1006.56 1006.86 1007.20 1007.58 1007.97 1008.38 1008.78 1009.19 1009.58 1009.96 1010.32 1010.67 1011.00 1011.32 1011.63
1007.14 1006.82 1006.50 1006.21 1005.96 1005.78 1005.65 1005.57 1005.54 1005.53 1005.54 1005.55 1005.55 1005.53 1005.49 1005.44 1005.38 1005.34 1005.33 1005.36 1005.45 1005.59 1005.81 1006.08 1006.42 1006.80 1007.21 1007.65 1008.11 1008.57 1009.01 1009.45 1009.86 1010.25 1010.62 1010.97 1011.30 1011.63
1006.43 1006.17 1005.92 1005.69 1005.51 1005.38 1005.31 1005.27 1005.28 1005.30 1005.32 1005.34 1005.33 1005.29 1005.23 1005.15 1005.07 1005.00 1004.96 1004.97 1005.03 1005.17 1005.38 1005.66 1006.01 1006.41 1006.85 1007.32 1007.81 1008.30 1008.78 1009.25 1009.70 1010.12 1010.52 1010.89 1011.25 1011.61
Thickness
5652 5653 5654 5656 5660 5663 5665 5666 5663 5662 5669 5680 5687 5696 5700 5702 5704 5706 5708 5710 5711 5713 5715 5716 5718 5719 5719 5720 5721 5721 5721 5721 5721 5721 5721 5720 5720 5719
5644 5645 5646 5648 5651 5653 5656 5658 5660 5659 5661 5671 5676 5683 5690 5694 5696 5699 5701 5704 5706 5708 5711 5712 5714 5716 5717 5718 5719 5720 5720 5720 5720 5720 5720 5720 5719 5719
5635 5637 5638 5640 5641 5643 5646 5648 5651 5653 5653 5661 5668 5674 5678 5683 5687 5691 5694 5697 5700 5703 5707 5708 5711 5712 5714 5715 5717 5718 5718 5719 5719 5719 5720 5719 5719 5719
5626 5627 5629 5630 5632 5633 5635 5637 5641 5645 5646 5649 5656 5661 5667 5672 5677 5682 5686 5690 5694 5699 5701 5704 5706 5709 5711 5713 5714 5715 5717 5717 5718 5718 5718 5718 5718 5718
5617 5618 5619 5620 5621 5623 5625 5627 5630 5635 5639 5641 5645 5651 5657 5663 5667 5672 5677 5681 5687 5692 5696 5699 5702 5705 5707 5710 5712 5713 5714 5715 5716 5716 5717 5717 5717 5717
5609 5609 5610 5611 5612 5613 5615 5617 5620 5623 5627 5630 5635 5640 5645 5652 5657 5660 5664 5670 5677 5684 5688 5693 5697 5700 5703 5706 5708 5710 5712 5713 5713 5713 5714 5715 5715 5715
5600 5600 5601 5603 5604 5604 5606 5608 5609 5612 5615 5618 5623 5629 5634 5639 5645 5651 5655 5661 5667 5674 5679 5685 5690 5694 5697 5700 5703 5706 5708 5709 5710 5711 5711 5712 5712 5713
5591 5592 5592 5594 5596 5597 5598 5599 5600 5601 5604 5607 5612 5618 5624 5630 5636 5641 5646 5650 5655 5666 5670 5675 5682 5687 5692 5695 5699 5701 5703 5705 5706 5707 5707 5708 5709 5709
5584 5583 5585 5588 5589 5590 5590 5591 5592 5594 5596 5599 5603 5609 5614 5621 5626 5631 5636 5641 5648 5656 5660 5665 5672 5677 5684 5689 5693 5695 5697 5699 5700 5701 5702 5704 5704 5705
5579 5578 5577 5578 5579 5579 5581 5583 5584 5587 5589 5592 5597 5602 5607 5613 5618 5623 5628 5633 5640 5647 5652 5655 5661 5667 5673 5678 5683 5687 5690 5692 5694 5695 5697 5698 5699 5699
5574 5573 5572 5571 5571 5570 5571 5573 5576 5578 5582 5587 5591 5595 5599 5604 5609 5613 5618 5622 5628 5636 5643 5648 5653 5658 5662 5666 5671 5676 5680 5683 5686 5688 5690 5691 5692 5693
5568 5567 5565 5564 5563 5561 5562 5564 5566 5569 5572 5577 5580 5585 5590 5595 5601 5606 5611 5615 5621 5626 5635 5640 5644 5649 5650 5655 5660 5664 5668 5672 5676 5679 5681 5684 5686 5687
5562 5561 5559 5556 5554 5553 5553 5554 5557 5559 5562 5566 5570 5576 5581 5587 5593 5600 5606 5611 5615 5622 5629 5634 5637 5642 5645 5646 5650 5655 5660 5663 5665 5668 5672 5676 5679 5682
5555 5554 5552 5548 5546 5545 5546 5547 5548 5549 5553 5558 5562 5567 5573 5579 5586 5593 5600 5606 5612 5617 5623 5628 5632 5636 5639 5641 5643 5647 5651 5655 5659 5662 5664 5666 5670 5674
5552 5549 5545 5542 5541 5541 5541 5541 5541 5544 5548 5552 5557 5562 5568 5574 5579 5585 5592 5598 5604 5610 5615 5621 5626 5629 5633 5637 5639 5642 5644 5648 5652 5655 5657 5660 5664 5667
5548 5545 5542 5540 5538 5538 5540 5540 5540 5543 5546 5550 5554 5558 5562 5567 5572 5578 5583 5590 5595 5600 5608 5614 5619 5623 5626 5632 5635 5637 5641 5644 5647 5649 5652 5654 5658 5662
5539 5540 5541 5541 5540 5540 5541 5541 5542 5542 5543 5546 5550 5553 5557 5561 5567 5573 5578 5583 5588 5594 5599 5605 5610 5615 5620 5625 5627 5631 5634 5637 5641 5643 5646 5648 5652 5656
5535 5540 5541 5540 5540 5540 5540 5540 5541 5541 5542 5545 5547 5550 5553 5557 5562 5568 5573 5578 5583 5589 5594 5598 5602 5605 5609 5614 5621 5625 5628 5631 5634 5637 5641 5643 5645 5649
5538 5541 5541 5541 5540 5540 5540 5540 5540 5541 5542 5544 5546 5548 5551 5555 5559 5563 5568 5573 5578 5584 5589 5593 5597 5601 5604 5608 5612 5618 5623 5625 5628 5630 5634 5638 5640 5643
5545 5545 5544 5543 5542 5541 5541 5541 5541 5541 5542 5543 5545 5547 5549 5552 5556 5561 5565 5569 5574 5579 5583 5588 5593 5597 5602 5605 5608 5611 5616 5620 5623 5625 5627 5629 5630 5632
5551 5549 5547 5545 5544 5543 5543 5542 5542 5541 5541 5542 5544 5546 5548 5551 5554 5559 5562 5565 5570 5575 5579 5584 5590 5595 5598 5601 5603 5605 5608 5612 5618 5620 5622 5622 5623 5624
5552 5550 5548 5547 5545 5545 5543 5542 5542 5542 5542 5542 5544 5546 5548 5550 5554 5557 5561 5564 5568 5573 5578 5581 5585 5589 5592 5595 5598 5600 5602 5603 5607 5611 5615 5619 5622 5622
5553 5550 5548 5547 5546 5544 5544 5543 5542 5542 5542 5543 5544 5546 5548 5550 5554 5557 5560 5563 5567 5571 5574 5576 5579 5583 5587 5590 5593 5595 5596 5597 5600 5602 5603 5608 5614 5618